Tracking 34223 objects as of 31-May-2026
HD Live streaming from Space Station
objects crossing your sky now

FORMOSAT7-5/COSMIC2-5

Track FORMOSAT7-5/COSMIC2-5 now!
10-day predictions


NORAD ID: 44358
Int'l Code: 2019-036V
Perigee: 584.8 km
Apogee: 585.3 km
Inclination: 24.0 °
Period: 96.2 minutes
Semi major axis: 6956 km
RCS: Unknown
Launch date: June 25, 2019
Source: Taiwan (Republic of China) (ROC)
Launch site: AIR FORCE EASTERN TEST RANGE (AFETR)
Your satellite tracking list
Your tracking list is empty




NASA's NSSDC Master Catalog

Two Line Element Set (TLE):
1 44358U 19036V   26150.99902385  .00003634  00000-0  28673-3 0  9997
2 44358  24.0005  24.2498 0000394  24.7549 335.2970 14.96432470379775
Source of the keplerian elements: AFSPC